Regional Weather Roundup
Issued by NWS Goodland, KS

Home | Current Version | Previous Version | Text Only | Print | Product List | Glossary On
Versions: 1 2 3 4 5 6 7 8 9 10 11 12 13 14 15 16 17 18 19 20 21 22 23 24 25 26 27 28 29 30 31 32 33 34 35 36 37 38 39 40 41 42 43 44 45 46 47 48 49 50
000
ASUS43 KGLD 290659
RWRGLD

GOODLAND FORECAST AREA HOURLY WEATHER ROUNDUP
NATIONAL WEATHER SERVICE GOODLAND KS
100 AM MDT SUN MAR 29 2015

...OFFICIAL OBSERVATIONS...

CITY           SKY/WX    TMP DP  RH WIND       PRES   REMARKS
GOODLAND KS    MOCLDY    59  36  42 S13G24    29.86S
HILL CITY KS   CLEAR     61  44  53 S17G28    29.80F
IMPERIAL NEB     N/A     70  24  17 NW16G29   29.87R
MCCOOK NEB     LGT RAIN  65  37  35 SW8G25    29.85R
AKRON CO       CLOUDY    62  29  28 NW17      29.96R
BURLINGTON CO  MOCLDY    56  27  32 NW10      29.93R
LIMON CO       PTCLDY    46  31  55 W9        30.01S
$$

...UNOFFICIAL OBSERVATIONS...

CITY           SKY/WX    TMP DP  RH WIND       PRES   REMARKS
COLBY KS       CLEAR     59  45  58 S16G24    29.84S
GOVE KS          N/A     60  32  34 MISG        N/A
LENORA KS        N/A     60  32  34 MISG        N/A
NORTON KS      CLEAR     55  37  50 W7        29.81S
SHARON SPRINGS   N/A     51  39  63 S12         N/A
TRIBUNE KS     CLEAR     52  41  66 S10       29.88F
KIT CARSON CO    N/A     45  28  51 MISG        N/A
YUMA CO          N/A     60  29  31 NW17        N/A
$$


USA.gov is the U.S. government's official web portal to all federal, state and local government web resources and services.